Location: ??????????
(41.2581°N, 22.8006°E)
Time: 09:33:12
(UTC+00:00)

USA 81 - Pass Details

Date: 13 December 2025
Orbit: 782 x 785 km, 85.0° (Epoch: 21 January)

Event Time Altitude Azimuth Distance (km) Brightness Sun altitude
Rises 16:25:13 0° 357° (N) 3,285 7.1 -15.4°
Reaches altitude 10° 16:27:36 10° 0° (N) 2,352 6.3 -15.8°
Maximum altitude 16:32:52 70° 84° (E) 834 3.9 -16.8°
Drops below altitude 10° 16:38:05 10° 168° (SSE) 2,333 6.5 -17.7°
Sets 16:40:27 0° 171° (S) 3,257 7.3 -18.2°
